Tracking 27111 objects as of 28-Mar-2023
HD Live streaming from Space Station
objects crossing your sky now

STARLINK-5706

Track STARLINK-5706 now!
10-day predictions
STARLINK-5706 is classified as:


NORAD ID: 55488
Int'l Code: 2023-015AR
Perigee: 565.4 km
Apogee: 567.1 km
Inclination: 43.0 °
Period: 95.8 minutes
Semi major axis: 6937 km
RCS: Unknown
Launch date: February 2, 2023
Source: United States (US)
Launch site: AIR FORCE EASTERN TEST RANGE (AFETR)
Your satellite tracking list
Your tracking list is empty




NASA's NSSDC Master Catalog

Two Line Element Set (TLE):
1 55488U 23015AR  23087.58334491 -.00009028  00000-0 -65410-3 0  9998
2 55488  43.0006  71.4894 0001241 260.4380  16.0821 15.02536943  8586
Source of the keplerian elements: AFSPC